www.pogodaiklimat.ru

Погода и климат >> Архив погоды >> Беларусь >> Столбцы


ПОГОДА в Столбцах

  • Прогноз погоды в Столбцах
  • Монитор погоды в Столбцах
  • Климат города

АРХИВ ПОГОДЫ в Столбцах

Время (UTC), дата Ветер
(напр.,м/с)
 
Видим.   Явления Облачность Т
(С)
Тd
(С)
f
(%)
Тe
(С)
Тes
(С)
Комфортность P
(гПа)
Po
(гПа)
Тmin
(С)
Tmax
(С)
R
(мм)
R24
(мм)
S
(см)
18 12.09 ЮВ 2 8000 м дымка 3 балла +19.4 +15.5 78 +22 +22 комфорт 1002.0 980.1 +26.0
21 12.09 штиль 0 н/о н/о +18.2 +16.7 91 +19 +19 1002.0 980.0
00 13.09 З 3 н/о н/о +15.1 +14.8 98 +14 +14 1004.0 981.7
03 13.09 СЗ 3 н/о н/о +13.8 +13.2 96 +13 +13 1004.0 981.6 +13.8
06 13.09 З 2 7000 м дымка 10 баллов +14.0 +13.2 95 +13 +13 1005.0 982.6 +13.7 5
09 13.09 З 3 9000 м дымка 10 баллов +15.5 +13.2 86 +15 +15 1006.0 983.7
12 13.09 З 1 10 км 6 баллов +17.7 +11.9 69 +19 +22 1006.0 983.9
15 13.09 З 2 10 км 10 баллов +17.9 +10.5 62 +18 +18 1005.0 982.9
18 13.09 Ю 1 8000 м дымка 3 балла +13.8 +10.4 80 +14 +14 1005.0 982.6 +18.6
21 13.09 Ю 3 н/о н/о +14.2 +10.6 79 +13 +13 1003.0 980.6
00 14.09 ЮЗ 4 н/о н/о +14.2 +10.2 77 +13 +13 1002.0 979.7
03 14.09 ЮЗ 2 н/о н/о +12.3 +10.2 87 +11 +11 1002.0 979.5 +12.2
06 14.09 ЮЗ 3 8000 м дымка 10 баллов +14.7 +10.5 76 +14 +14 1002.0 979.7 +12.2
09 14.09 ЮЗ 3 9000 м дымка 10 баллов +16.6 +12.3 76 +16 +16 1002.0 979.9
12 14.09 ЮЗ 2 8000 м ливневой дождь 10 баллов +17.0 +14.1 83 +17 +17 1003.0 980.9
15 14.09 ЮЗ 2 9000 м ливневой дождь 10 баллов +16.4 +13.7 84 +17 +17 1002.0 979.9
18 14.09 штиль 0 5000 м дымка 10 баллов +15.5 +14.7 95 +15 +15 1002.0 979.8 +18.0
21 14.09 З 2 н/о н/о +14.9 +14.3 96 +15 +15 1002.0 979.7
00 15.09 ЮЗ 2 н/о н/о +13.1 +12.0 93 +12 +12 1002.0 979.6
03 15.09 ЮЗ 2 н/о н/о +11.6 +10.3 92 +10 +10 1003.0 980.4 +11.5
06 15.09 ЮЗ 4 7000 м ливневой дождь 10 баллов +10.8 +9.7 93 +8 +8 1004.0 981.3 +10.5 5
09 15.09 ЮЗ 4
{15}
9000 м дымка 10 баллов +12.8 +8.3 74 +11 +11 1007.0 984.4
12 15.09 З 6
{16}
10 км 10 баллов +13.8 +8.4 70 +12 +12 1009.0 986.5
15 15.09 ЮЗ 3
{14}
10 км 10 баллов +13.8 +8.6 71 +13 +13 1011.0 988.4
18 15.09 ЮЗ 2 5000 м дымка 6 баллов +12.0 +8.5 79 +11 +11 1013.0 990.2 +14.9
21 15.09 ЮЗ 1 н/о н/о +9.3 +8.1 92 +9 +9 1015.0 992.0
00 16.09 штиль 0 н/о н/о +8.7 +7.9 95 +8 +8 1016.0 992.9
03 16.09 штиль 0 н/о н/о +8.5 +8.1 97 +8 +8 1017.0 993.9 +7.9
06 16.09 штиль 0 8000 м дымка 10 баллов +11.1 +9.8 92 +10 +10 1018.0 995.1 +7.9
09 16.09 Ю 1 10 км 6 баллов +15.8 +10.5 71 +17 +20 1019.0 996.4
12 16.09 Ю 1 10 км 10 баллов +16.9 +10.0 64 +18 +18 1018.0 995.5
15 16.09 штиль 0 9000 м дымка 10 баллов +14.5 +10.5 77 +14 +14 1018.0 995.3
18 16.09 ЮВ 2 7000 м дымка 10 баллов +12.6 +9.8 83 +12 +12 1019.0 996.2 +17.6
21 16.09 В 1 н/о н/о +12.6 +9.2 80 +13 +13 1018.0 995.2
00 17.09 В 1 н/о н/о +12.2 +10.1 87 +12 +12 1016.0 993.2
03 17.09 В 1 н/о н/о +11.8 +10.0 89 +12 +12 1015.0 992.2 +11.7
06 17.09 В 2 6000 м дымка 10 баллов +12.9 +10.8 87 +12 +12 1014.0 991.3 +11.4
09 17.09 штиль 0 8000 м дымка 6 баллов +14.9 +12.2 84 +15 +19 1013.0 990.5
12 17.09 штиль 0 7000 м ливневой дождь 10 баллов +14.6 +13.3 92 +14 +14 1013.0 990.5
15 17.09 штиль 0 5000 м ливневой дождь 10 баллов +14.3 +13.8 97 +14 +14 1011.0 988.5
18 17.09 штиль 0 5000 м дымка 10 баллов +14.6 +14.3 98 +14 +14 1009.0 986.6 +15.2 4
21 17.09 В 1 н/о н/о +15.2 +15.2 100 +16 +16 1005.0 982.7
00 18.09 ЮВ 1 н/о н/о +15.1 +15.1 100 +16 +16 1002.0 979.8
03 18.09 Ю 3 н/о н/о +14.3 +13.3 94 +13 +13 1000.0 977.7 +14.2
06 18.09 Ю 6
{13}
7000 м дымка 10 баллов +12.4 +10.3 87 +10 +10 1000.0 977.6 +12.3 11
09 18.09 Ю 5
{15}
8000 м дымка 10 баллов +12.5 +9.3 81 +10 +10 1001.0 978.5
12 18.09 ЮЗ 7
{18}
8000 м дымка 10 баллов +13.1 +9.9 81 +10 +10 1002.0 979.6
15 18.09 ЮЗ 8
{18}
8000 м дымка 10 баллов +11.8 +10.4 91 +8 +8 1003.0 980.5
18 18.09 З 9
{19}
6000 м дымка 10 баллов +11.4 +8.6 83 +8 +8 1006.0 983.3 +13.5
21 18.09 ЮЗ 4
{13}
н/о н/о +10.6 +8.4 86 +8 +8 1010.0 987.2
00 19.09 З 2
{11}
н/о н/о +10.1 +8.2 88 +9 +9 1012.0 989.1
03 19.09 З 1 н/о н/о +9.1 +7.9 92 +8 +8 1014.0 991.0 +9.0
06 19.09 З 2 7000 м дымка 6 баллов +10.1 +8.7 91 +9 +9 1016.0 993.0 +8.0
09 19.09 ЮЗ 2 9000 м дымка 10 баллов +13.1 +9.3 78 +12 +12 1017.0 994.2
12 19.09 ЮЗ 2 10 км 10 баллов +17.1 +8.8 58 +17 +17 1017.0 994.5
15 19.09 штиль 0 10 км 6 баллов +15.9 +8.1 60 +16 +16 1018.0 995.4

 

Местоположение метеостанции Столбцы (Минская область, Беларусь): широта 53.48 долгота 26.73 высота над уровнем моря 190 м.

В архиве по умолчанию представлена погода в Столбцах за последнюю неделю. Архивные данные за месяц целиком и за предыдущие месяцы, начиная с января 2011 года, Вы можете получить, выбрав интересующий диапазон дат из раскрывающегося списка и нажав кнопку "Ввод!".

Внимание! Время в таблицах - всемирное. Для получения местного времени необходимо прибавить поправку, которая в Столбцах равна 3 ч.

Смотрите также архив погоды в соседних городах и на ближайших метеорологических станциях:

Погода в Новогрудке (Гродненская область, Беларусь) (60 км)
Погода в Воложине (Минская область, Беларусь) (69 км)
Погода в Слуцке (Минская область, Беларусь) (74 км)
Погода в Минске (город Минск, Беларусь) (78 км)
Погода в Ганцевичах (Брестская область, Беларусь) (83 км)
Погода в Барановичах (Брестская область, Беларусь) (91 км)
Погода в Марьиной Горке (Минская область, Беларусь) (93 км)
Погода в Лиде (Гродненская область, Беларусь) (104 км)
Погода в Вилейке (Минская область, Беларусь) (116 км)
Погода в Ошмянах (Гродненская область, Беларусь) (118 км)

Пояснения к столбцам:

Ветер - указаны скорость ветра в м/с - средняя за 10 мин, порывы в срок и между сроками (в фигурных скобках) и направление, откуда дует ветер: С - северный, СВ - северо-восточный, В - восточный, ЮВ - юго-восточный, Ю - южный, ЮЗ - юго-западный, З - западный, СЗ - северо-западный.
Видимость - горизонтальная дальность видимости в метрах или километрах. При видимости от 1 до 10 км при отсутствии осадков обычно наблюдается дымка, при ухудшении видимости до 1 км и менее - туман. В сухую погоду видимость может ухудшаться дымом, пылью или мглою.
Явления - указаны атмосферные явления, наблюдавшиеся в срок или в последний час перед сроком; фигурными скобками обозначены явления, наблюдавшиеся между сроками (за 1-3 часа до срока); квадратными скобками обозначены град или гололедные отложения с указанием их диаметра в мм.
Облачность - указаны через наклонную черту общая и нижняя облачность в баллах и высота нижней границы облаков в метрах; квадратными скобками обозначены формы облаков: Ci - перистые, Cs - перисто-слоистые, Cc - перисто-кучевые, Ac - высококучевые, As - высокослоистые, Sc - слоисто-кучевые, Ns - слоисто-дождевые, Cu - кучевые, Cb - кучево-дождевые. Подробнее классификацию облаков см. в Атласе облаков (PDF).
T - Температура воздуха - температура, измеренная на высоте 2 м над землей.
Td - Температура точки росы - температура, при понижении до которой содержащийся в воздухе водяной пар достигнет насыщения.
f - Относительная влажность воздуха - влажноcть воздуха, измеренная на высоте 2 м над землей.
Te - Эффективная температура - температура, которую ощущает одетый по сезону человек в тени. Характеристика душности погоды. При расчете учитывается влияние влажности воздуха и скорости ветра на теплоощущения человека.
Tes - Эффективная температура на солнце - температура, которую ощущает человек, с поправкой на солнечный нагрев. Характеристика знойности погоды. Зависит от высоты солнца над горизонтом, облачности и скорости ветра. Ночью, в пасмурную погоду, а также при ветре 12 м/с и более поправка равна нулю.
P - Атмосферное давление - приведенное к уровню моря атмосферное давление.
Po - Атмосферное давление - измеренное на уровне метеостанции атмосферное давление.
Tmin - Минимальная температура - минимум температуры воздуха на высоте 2 м над землей.
Tmax - Максимальная температура - максимум температуры воздуха на высоте 2 м над землей.
R - Количество осадков - Количество выпавших осадков за период времени, мм. При наведении курсора мыши на число - период времени, за который выпало указанное количество осадков.
R24 - Количество осадков - Количество выпавших осадков за 24 часа, мм.
S - Снежный покров - Высота снежного покрова, см. При наведении курсора мыши на число - состояние снежного покрова и степень покрытия местности в баллах.